Home   Weather   Malakal   Past weeks

Flag for South Sudan Past Weather in Malakal, South Sudan — Yesterday and Last 2 Weeks

Now
102 °F

Sunny.


Feels Like: 100 °F
Forecast: 76 / 98 °F
Wind: 8 mph from Northeast

Location: Khartoum Airport

Current Time: Sep 29, 2016 at 6:28:10 PM

Latest Report: Sep 29, 2016 at 6:00 PM


Visibility: 10 mi

Pressure: 29.77 "Hg

Humidity: 18%

Dew Point: 52 °F

Location of MalakalLocation

Past Weather in Malakal — Graph

°F

Malakal Temperature Yesterday

Maximum temperature yesterday: 100 °F (at 3:00 PM)
Minimum temperature yesterday: 81 °F (at 5:00 AM)
Average temperature yesterday: 90 °F

High & Low Weather Summary for the Past Weeks

 TemperatureHumidityPressure
High106 °F (Sep 15, 3:00 PM)94% (Sep 21, 4:00 AM)30.01 "Hg (Sep 21, 4:00 AM)
Low72 °F (Sep 21, 3:30 AM)11% (Sep 15, 3:30 PM)29.68 "Hg (Sep 15, 5:30 PM)
Average91 °F38%29.83 "Hg
* Reported Sep 14 5:00 PM — Sep 29 5:00 PM, Malakal, Weather by CustomWeather, © 2016

Note: Actual official high and low records may vary slightly from our data, if they occured in-between our weather recording intervals... More about our weather records

Advertising

Malakal Weather History for the Previous 24 Hours

Scroll right to see more
 ConditionsComfort  
Time TempWeatherWind HumidityBarometerVisibility
5:00 PM
Thu, Sep 29
102 °FPassing clouds.15 mph18%29.77 "HgN/A
4:30 PM104 °FPassing clouds.3 mph17%29.77 "HgN/A
4:00 PM104 °FPassing clouds.5 mph17%29.80 "HgN/A
2:30 PM102 °FPassing clouds.5 mph23%29.83 "HgN/A
2:00 PM102 °FPassing clouds.5 mph23%29.83 "HgN/A
1:30 PM100 °FPassing clouds.5 mph24%29.83 "HgN/A
1:00 PM100 °FSunny.5 mph25%29.86 "Hg10 mi
12:30 PM99 °FSunny.5 mph29%29.86 "Hg10 mi
12:00 PM99 °FSunny.9 mph29%29.86 "Hg10 mi
11:30 AM97 °FSunny.9 mph32%29.89 "Hg10 mi
11:00 AM95 °FSunny.12 mph34%29.89 "Hg10 mi
10:30 AM95 °FSunny.9 mph34%29.89 "Hg10 mi
10:00 AM93 °FSunny.12 mph39%29.89 "Hg10 mi
9:30 AM93 °FSunny.12 mph39%29.89 "Hg10 mi
9:00 AM90 °FSunny.10 mph43%29.89 "Hg10 mi
8:30 AM88 °FSunny.10 mph46%29.89 "Hg10 mi
8:00 AM86 °FSunny.8 mph52%29.89 "Hg10 mi
7:30 AM84 °FSunny.3 mph58%29.89 "Hg10 mi
7:00 AM84 °FSunny.6 mph51%29.86 "Hg10 mi
6:30 AM84 °FClear.6 mph51%29.86 "Hg10 mi
6:00 AM84 °FClear.3 mph51%29.86 "Hg10 mi
5:30 AM84 °FClear.6 mph55%29.86 "Hg10 mi
5:00 AM86 °FClear.3 mph52%29.86 "Hg10 mi
4:30 AM86 °FClear.7 mph52%29.86 "Hg10 mi
4:00 AM88 °FClear.12 mph49%29.86 "Hg10 mi
3:30 AM90 °FClear.13 mph43%29.86 "Hg10 mi
3:00 AM90 °FClear.5 mph43%29.86 "Hg10 mi
2:30 AM90 °FClear.5 mph41%29.86 "Hg10 mi
2:00 AM90 °FClear.5 mph41%29.86 "Hg10 mi
1:30 AM91 °FClear.5 mph36%29.89 "Hg10 mi
1:00 AM91 °FClear.5 mph36%29.89 "Hg10 mi
12:30 AM91 °FClear.3 mph30%29.89 "Hg10 mi
12:00 AM91 °FClear.3 mph36%29.89 "Hg10 mi
11:30 PM
Wed, Sep 28
91 °FClear.3 mph36%29.89 "Hg10 mi
11:00 PM91 °FClear.6 mph36%29.89 "Hg10 mi
10:30 PM91 °FClear.7 mph36%29.89 "Hg10 mi
10:00 PM93 °FClear.8 mph36%29.89 "Hg10 mi
9:00 PM95 °FClear.8 mph34%29.86 "Hg10 mi
8:30 PM95 °FClear.5 mph30%29.86 "Hg10 mi
8:00 PM97 °FClear.6 mph27%29.83 "Hg10 mi
7:30 PM97 °FClear.7 mph22%29.83 "Hg10 mi
7:00 PM99 °FClear.3 mph24%29.83 "Hg10 mi
6:30 PM99 °FPassing clouds.2 mph21%29.80 "HgN/A
6:00 PM100 °FSunny.5 mph18%29.80 "Hg10 mi
Weather by CustomWeather, © 2016

See weather overviewHow to use our weather pages